Left ArrowRight Arrow

39.12711, -84.51439

Hourly Observations for June 16, 2024

Temp ( °F °C ) Dew Point ( °F °C ) Humidity (%) Winds ( mph kmh ) Pressure ( in mb ) Visibility ( mi km ) Precip ( " mm )
12:53 am 00:53 Clear 61 16.1 56 13.3 83 83 Calm 30.06 1018 10 16 0.00 0.00
1:53 am 01:53 Clear 58 14.4 56 13.3 93 93 Calm 30.06 1018 9 14 0.00 0.00
2:53 am 02:53 Clear 57 13.9 55 12.8 93 93 Calm 30.06 1018 10 16 0.00 0.00
3:53 am 03:53 Clear 57 13.9 55 12.8 93 93 Calm 30.06 1018 10 16 0.00 0.00
4:53 am 04:53 Clear 55 12.8 54 12.2 96 96 Calm 30.06 1018 10 16 0.00 0.00
5:53 am 05:53 Clear 56 13.3 55 12.8 97 97 ENE 3 6 30.07 1018 9 14 0.00 0.00
6:53 am 06:53 Sunny 56 13.3 54 12.2 93 93 Calm 30.06 1018 10 16 0.00 0.00
7:53 am 07:53 Sunny 62 16.7 57 13.9 84 84 Calm 30.06 1018 10 16 0.00 0.00
8:53 am 08:53 Sunny 68 20 56 13.3 65 65 Calm 30.07 1018 10 16 0.00 0.00
9:53 am 09:53 Sunny 73 22.8 59 15 61 61 Calm 30.08 1019 10 16 0.00 0.00
10:53 am 10:53 Sunny 78 25.6 59 15 52 52 S 5 7 30.06 1018 10 16 0.00 0.00
11:53 am 11:53 Sunny 82 27.8 57 13.9 43 43 Calm 30.06 1018 10 16 0.00 0.00
12:53 pm 12:53 Sunny 85 29.4 59 15 42 42 SE 3 6 30.04 1017 10 16 0.00 0.00
1:53 pm 13:53 Sunny 87 30.6 62 16.7 43 43 SE 3 6 30.04 1017 10 16 0.00 0.00
2:53 pm 14:53 Sunny 89 31.7 63 17.2 42 42 SE 6 9 30.02 1017 10 16 0.00 0.00
3:53 pm 15:53 Sunny 91 32.8 66 18.9 44 44 SE 6 9 29.99 1016 10 16 0.00 0.00
4:53 pm 16:53 Sunny 90 32.2 64 17.8 42 42 SSE 5 7 29.98 1015 10 16 0.00 0.00
5:53 pm 17:53 Sunny 90 32.2 64 17.8 42 42 VRB 6 9 29.96 1015 10 16 0.00 0.00
6:53 pm 18:53 Sunny 89 31.7 65 18.3 45 45 S 7 11 29.96 1015 10 16 0.00 0.00
7:53 pm 19:53 Sunny 85 29.4 68 20 57 57 S 6 9 29.96 1015 10 16 0.00 0.00
8:53 pm 20:53 Sunny 81 27.2 69 20.6 67 67 Calm 29.97 1015 10 16 0.00 0.00
9:53 pm 21:53 Clear 76 24.4 67 19.4 74 74 Calm 29.99 1016 10 16 0.00 0.00
10:53 pm 22:53 Clear 73 22.8 67 19.4 81 81 Calm 30.00 1016 9 14 0.00 0.00
11:53 pm 23:53 Clear 73 22.8 67 19.4 81 81 Calm 30.00 1016 9 14 0.00 0.00

Powered by Vaisala Xweather